Bangkok (Suvarnabhumi), Thailand

1:00 AM +07 on December 06, 2019 (GMT +0700)
Bangkok (Suvarnabhumi)

Weather History for VTBS - November, 2019

Change the Weather History Date:

Tuesday, November 12, 2019

  Actual Average (VTBU) Record (VTBU)
Temperature  
Mean Temperature 86 °F -  
Max Temperature 94 °F 89 °F 94 °F (2016)
Min Temperature 78 °F 71 °F 69 °F (2001)
Cooling Degree Days 21    
Growing Degree Days 36 (Base 50)    
Moisture  
Dew Point 67 °F    
Average Humidity 58    
Maximum Humidity 74    
Minimum Humidity 26    
Precipitation  
Precipitation 0.00 in 0.06 in - ()
Sea Level Pressure  
Sea Level Pressure 29.82 in    
Wind  
Wind Speed 4 mph ()    
Max Wind Speed 9 mph    
Max Gust Speed 16 mph    
Visibility 4.2 miles    
Events      
Averages and records for this station are not official NWS values.
T = Trace of Precipitation, MM = Missing Value Source: Averaged Metar Reports

Daily Weather History Graph

Daily Weather History Graph

Search for Another Location

Airport or City:

Astronomy

Nov. 12, 2019 Rise Set
Actual Time 6:13 AM +07 5:46 PM +07
Civil Twilight 5:51 AM +07 6:08 PM +07
Nautical Twilight 5:25 AM +07 6:34 PM +07
Astronomical Twilight 5:00 AM +07 6:59 PM +07
Moon 5:46 PM +07 (11/12) 5:47 AM +07 (11/12)
Length of Visible Light 12h 17m
Length of Day
11h 32m
Full, 100% of the Moon is Illuminated
Nov 12
Full
Nov 12
Full
Nov 20
Last Quarter
Nov 26
New
Dec 4
First Quarter

Hourly Weather History & Observations

Time (+07) Temp. Heat Index Dew Point Humidity Pressure Visibility Wind Dir Wind Speed Gust Speed Precip Events Conditions
12:30 AM 78.8 °F - 68.0 °F 69% 29.83 in 5.0 mi West 3.5 mph - N/A   Mostly Cloudy
1:00 AM 81 °F - 67 °F 53% 29.81 in 2 mi Calm Calm - -   Haze
1:00 AM 80.6 °F 84.6 °F 71.6 °F 74% 29.83 in 5.0 mi NE 6.9 mph - N/A   Mostly Cloudy
1:30 AM 80.6 °F 83.9 °F 69.8 °F 70% 29.80 in 5.0 mi East 6.9 mph - N/A   Mostly Cloudy
2:00 AM 80.6 °F 83.2 °F 68.0 °F 65% 29.80 in 5.0 mi East 6.9 mph - N/A   Mostly Cloudy
2:30 AM 80.6 °F 83.2 °F 68.0 °F 65% 29.80 in 5.0 mi ESE 4.6 mph - N/A   Mostly Cloudy
3:00 AM 80.6 °F 83.2 °F 68.0 °F 65% 29.80 in 5.0 mi ESE 5.8 mph - N/A   Mostly Cloudy
4:00 AM 81 °F - 64 °F 46% 29.80 in 2 mi Calm Calm - -   Haze
4:00 AM 78.8 °F - 66.2 °F 65% 29.80 in 4.3 mi ESE 4.6 mph - N/A   Mostly Cloudy
5:00 AM 78.8 °F - 66.2 °F 65% 29.80 in 4.3 mi SE 3.5 mph - N/A   Mostly Cloudy
5:30 AM 78.8 °F - 66.2 °F 65% 29.80 in 4.3 mi Variable 3.5 mph - N/A   Partly Cloudy
6:00 AM 78.8 °F - 66.2 °F 65% 29.83 in 4.3 mi Variable 4.6 mph - N/A   Mostly Cloudy
6:30 AM 78.8 °F - 66.2 °F 65% 29.83 in 4.3 mi Variable 3.5 mph - N/A   Mostly Cloudy
7:00 AM 80 °F - 66 °F 53% 29.82 in 1 mi NNE 2.3 mph - -   Haze
7:00 AM 78.8 °F - 66.2 °F 65% 29.83 in 5.6 mi Variable 3.5 mph - N/A   Mostly Cloudy
7:30 AM 80.6 °F 82.7 °F 66.2 °F 61% 29.86 in 5.6 mi East 5.8 mph - N/A   Partly Cloudy
8:00 AM 82.4 °F 83.9 °F 64.4 °F 54% 29.86 in 6.2 mi East 6.9 mph - N/A   Partly Cloudy
8:30 AM 84.2 °F 85.6 °F 64.4 °F 51% 29.86 in - ENE 9.2 mph - N/A   Clear
10:00 AM 88 °F - 64 °F 34% 29.87 in 2 mi ESE 3.5 mph - -   Haze
10:00 AM 86.0 °F 87.3 °F 64.4 °F 48% 29.89 in - ENE 8.1 mph - N/A   Clear
10:30 AM 87.8 °F 88.5 °F 62.6 °F 43% 29.86 in - ENE 8.1 mph - N/A   Clear
11:30 AM 89.6 °F 91.1 °F 64.4 °F 43% 29.83 in - ENE 8.1 mph - N/A   Clear
12:00 PM 89.6 °F 91.1 °F 64.4 °F 43% 29.83 in - NE 6.9 mph - N/A   Clear
1:00 PM 93 °F - 66 °F 31% 29.79 in 2 mi ENE 9.2 mph - -   Haze
3:00 PM 91.4 °F 91.4 °F 60.8 °F 36% 29.74 in 5.6 mi NE 8.1 mph - N/A   Unknown
3:30 PM 91.4 °F 92.1 °F 62.6 °F 38% 29.74 in 5.6 mi NNE 5.8 mph - N/A   Partly Cloudy
4:00 PM 93 °F - 62 °F 26% 29.75 in 2 mi ENE 5.8 mph - -   Haze
4:00 PM 91.4 °F 94.0 °F 66.2 °F 43% 29.74 in 5.0 mi East 5.8 mph - N/A   Partly Cloudy
4:30 PM 89.6 °F 92.2 °F 66.2 °F 46% 29.74 in 5.0 mi East 6.9 mph - N/A   Partly Cloudy
5:30 PM 86.0 °F 90.4 °F 69.8 °F 58% 29.77 in 5.0 mi SW 4.6 mph - N/A   Partly Cloudy
6:30 PM 82.4 °F 86.3 °F 69.8 °F 66% 29.77 in 5.0 mi WSW 3.5 mph - N/A   Partly Cloudy
7:00 PM 87 °F - 68 °F 44% 29.79 in 1 mi Calm Calm - -   Haze
7:30 PM 80.6 °F 83.9 °F 69.8 °F 70% 29.80 in 5.0 mi SW 2.3 mph - N/A   Partly Cloudy
8:00 PM 80.6 °F 83.9 °F 69.8 °F 70% 29.83 in 5.0 mi WSW 2.3 mph - N/A   Partly Cloudy
8:30 PM 80.6 °F 84.6 °F 71.6 °F 74% 29.83 in 5.0 mi WSW 2.3 mph - N/A   Partly Cloudy
9:00 PM 80.6 °F 84.6 °F 71.6 °F 74% 29.83 in 5.0 mi West 2.3 mph - N/A   Partly Cloudy
9:30 PM 80.6 °F 84.6 °F 71.6 °F 74% 29.86 in 4.3 mi Variable 2.3 mph - N/A   Unknown
10:00 PM 80.6 °F 84.6 °F 71.6 °F 74% 29.86 in 4.3 mi Calm Calm - N/A   Unknown
10:30 PM 82.4 °F 88.2 °F 73.4 °F 74% 29.86 in 4.3 mi Variable 4.6 mph 16.1 mph N/A   Unknown
11:00 PM 82.4 °F 88.2 °F 73.4 °F 74% 29.86 in 3.7 mi Variable 3.5 mph - N/A   Unknown
11:30 PM 82.4 °F 88.2 °F 73.4 °F 74% 29.86 in 3.7 mi Variable 3.5 mph - N/A   Unknown